Location: Whitehorse
(60.7170°N, 135.0500°W)
Time: 22:45:46
(UTC-08:00)

Envisat - Visible Passes

Search period start: 20 February 2019 00:00
Search period end: 02 March 2019 00:00
Orbit: 764 x 766 km, 98.2° (Epoch: 20 February)

Date Brightness Start Highest point End Pass type
(mag) Time Alt. Az. Time Alt. Az. Time Alt. Az.
20 Feb 3.2 19:18:12 10° SSE 19:23:18 81° WSW 19:28:26 10° NNW visible
20 Feb 5.7 20:59:28 10° SW 21:03:09 20° W 21:06:52 10° NW visible
21 Feb 6.0 07:17:23 10° NE 07:20:59 19° E 07:24:34 10° SE visible
21 Feb 3.0 18:41:33 10° SE 18:46:34 62° ENE 18:51:36 10° NNW visible
21 Feb 4.8 20:21:23 10° SSW 20:25:57 33° W 20:30:33 10° NNW visible
22 Feb 6.5 06:42:15 10° ENE 06:43:35 11° ENE 06:44:54 10° E visible
22 Feb 3.8 19:43:56 10° S 19:48:56 56° W 19:53:58 10° NNW visible
22 Feb 6.0 21:26:37 10° WSW 21:29:07 14° W 21:31:39 10° NW visible
23 Feb 3.0 19:06:59 10° SSE 19:12:04 88° ENE 19:17:13 10° NNW visible
23 Feb 5.5 20:47:47 10° SW 20:51:47 23° W 20:55:49 10° NW visible
24 Feb 6.1 07:06:26 10° NE 07:09:37 16° E 07:12:46 10° ESE visible
24 Feb 4.5 20:09:54 10° SSW 20:14:39 38° W 20:19:25 10° NNW visible
25 Feb 3.5 19:32:37 10° S 19:37:40 65° WSW 19:42:45 10° NNW visible
25 Feb 5.9 21:14:38 10° WSW 21:17:43 16° W 21:20:49 10° NW visible
26 Feb 3.0 18:55:47 10° SSE 19:00:52 76° ENE 19:05:58 10° NNW visible
26 Feb 5.2 20:36:10 10° SSW 20:40:26 27° W 20:44:45 10° NNW visible
27 Feb 6.3 06:55:36 10° NE 06:58:12 14° E 07:00:48 10° ESE visible
27 Feb 4.2 19:58:29 10° S 20:03:21 45° W 20:08:15 10° NNW visible
27 Feb 6.3 21:42:38 10° W 21:43:45 11° WNW 21:44:53 10° WNW visible
28 Feb 3.3 19:21:20 10° SSE 19:26:25 76° WSW 19:31:33 10° NNW visible
28 Feb 5.8 21:02:48 10° SW 21:06:20 19° W 21:09:54 10° NW visible
01 Mar 5.0 20:24:37 10° SSW 20:29:06 31° W 20:33:38 10° NNW visible
